VRMM Airport Information

Runway Information
Runway 18 Length 10499 ft width 148 ft
Elevation 6 ft Threshold 328 ft Heading 179
Runway 36 Length 10499 ft Width 148 ft
Elevation 5 ft Threshold 952 ft Heading 359
Airport Frequencies
Type APP Name APP Frequency 119.7 MHZ
Type GND Name GND Frequency 121.6 MHZ
Type TWR Name TWR Frequency 118.1 MHZ
Airport Navaids
Type NDB Name Male Frequency 252 KHZ
Type VOR-DME Name Male Frequency 114700 KHZ
Airport Weather Information & NOTAM
ADDS - METARS form results

(0803 UTC 20 November 2018)
Data provider http://aviationweather.gov/metar/data/
 
Forecast for: VRMM (MALE INTL/HULULE, MV)
Text: TAF VRMM 200500Z 2006/2112 14005KT 9000 FEW018
Forecast period: 0600 UTC 20 November 2018 to 1200 UTC 21 November 2018
Forecast type: FROM: standard forecast or significant change
Winds: from the SE (140 degrees) at 6 MPH (5 knots; 2.6 m/s)
Visibility: 6 miles (9 km)
Ceiling: at least 12,000 feet AGL
Clouds: few clouds at 1800 feet AGL
Weather: no significant weather forecast for this period
Text: TEMPO 2008/2013 5000 -SHRA FEW017CB
Forecast period: 0800 to 1300 UTC 20 November 2018
Forecast type: TEMPORARY: The following changes expected for less than half the time period
Visibility: 3 miles (5 km)
Ceiling: at least 12,000 feet AGL
Clouds: few clouds at 1700 feet AGL
Weather: -SHRA  (light rain showers)